Location: Unspecified
(34.4950°S, 58.5160°W)
Time: 00:09:42
(UTC+00:00)

Cosmos 1980 Rocket - Pass Details

Date: 19 April 2026
Orbit: 826 x 850 km, 71.0° (Epoch: 16 May)

Event Time Altitude Azimuth Distance (km) Brightness Sun altitude
Exits shadow 08:29:01 19° 203° (SSW) 1,910 3.8 -23.6°
Drops below altitude 10° 08:31:11 10° 185° (S) 2,473 4.6 -23.2°
Sets 08:34:04 0° 171° (S) 3,410 5.5 -22.6°
